Location: Iesi
(43.5167°N, 13.2333°E)
Time: 01:28:39
(UTC+00:00)

Cosmos 1980 Rocket - Pass Details

Date: 08 August 2020
Orbit: 829 x 850 km, 71.0° (Epoch: 19 September)

Event Time Altitude Azimuth Distance (km) Brightness Sun altitude
Rises 18:53:26 0° 344° (NNW) 3,421 6.1 -6.3°
Reaches altitude 10° 18:56:40 10° 3° (N) 2,479 5.0 -6.8°
Maximum altitude 19:00:37 19° 47° (NE) 1,918 3.9 -7.4°
Drops below altitude 10° 19:04:33 10° 91° (E) 2,462 4.1 -8.0°
Enters shadow 19:05:24 - 97° (E) 2,687 4.2 -8.1°
